| time (UTC) | temp F | wind direction | speed knots | gust knots | rain 1hr in | rain 24hr in | rain mn in | humidity % | barometer mb |
| 20260506203515 | 52 | 352 | 1.7 | 5.2 | 0.00 | 0.00 | 0.00 | 72 | 1013.2 |
| 20260506203033 | 52 | 352 | 1.7 | 5.2 | 0.00 | 0.00 | 0.00 | 72 | 1013.0 |
| 20260506202517 | 53 | 352 | 1.7 | 5.2 | 0.00 | 0.00 | 0.00 | 72 | 1013.0 |
| 20260506202016 | 53 | 352 | 1.7 | 7.0 | 0.00 | 0.00 | 0.00 | 72 | 1013.0 |
| 20260506201538 | 53 | 360 | 0.9 | 7.0 | 0.00 | 0.00 | 0.00 | 72 | 1013.0 |
| 20260506201015 | 53 | 5 | 1.7 | 3.5 | 0.00 | 0.00 | 0.00 | 72 | 1012.9 |
| 20260506200515 | 53 | 5 | 0.9 | 4.3 | 0.00 | 0.00 | 0.00 | 72 | 1012.9 |
| 20260506200032 | 53 | 5 | 1.7 | 4.3 | 0.00 | 0.00 | 0.00 | 72 | 1012.8 |
| 20260506195516 | 53 | 5 | 1.7 | 5.2 | 0.00 | 0.00 | 0.00 | 72 | 1012.7 |
| 20260506195015 | 53 | 5 | 1.7 | 5.2 | 0.00 | 0.00 | 0.00 | 72 | 1012.6 |
| 20260506194532 | 54 | 5 | 0.9 | 3.5 | 0.00 | 0.00 | 0.00 | 72 | 1012.5 |
| 20260506194017 | 54 | 5 | 1.7 | 3.5 | 0.00 | 0.00 | 0.00 | 71 | 1012.4 |
| 20260506193515 | 54 | 5 | 0.9 | 4.3 | 0.00 | 0.00 | 0.00 | 71 | 1012.4 |
| 20260506193031 | 54 | 360 | 0.9 | 4.3 | 0.00 | 0.00 | 0.00 | 71 | 1012.3 |
| 20260506192515 | 54 | 360 | 0.9 | 3.5 | 0.00 | 0.00 | 0.00 | 71 | 1012.2 |
| 20260506192019 | 54 | 360 | 1.7 | 3.5 | 0.00 | 0.00 | 0.00 | 70 | 1012.1 |
| 20260506191533 | 55 | 0 | 0.9 | 5.2 | 0.00 | 0.00 | 0.00 | 69 | 1012.1 |
| 20260506191018 | 55 | 5 | 0.9 | 5.2 | 0.00 | 0.00 | 0.00 | 69 | 1012.0 |
| 20260506190516 | 55 | 5 | 0.9 | 5.2 | 0.00 | 0.00 | 0.00 | 69 | 1012.0 |
| 20260506190032 | 55 | 0 | 0.0 | 3.5 | 0.00 | 0.00 | 0.00 | 69 | 1011.9 |
| 20260506185515 | 55 | 360 | 0.9 | 4.3 | 0.00 | 0.00 | 0.00 | 68 | 1011.9 |
| 20260506185017 | 55 | 360 | 0.9 | 5.2 | 0.00 | 0.00 | 0.00 | 68 | 1011.8 |
| 20260506184533 | 55 | 352 | 1.7 | 5.2 | 0.00 | 0.00 | 0.00 | 68 | 1011.8 |
| 20260506184015 | 55 | 352 | 1.7 | 7.8 | 0.00 | 0.00 | 0.00 | 67 | 1011.8 |
| 20260506183518 | 55 | 93 | 1.7 | 7.8 | 0.00 | 0.00 | 0.00 | 67 | 1011.7 |
| 20260506183034 | 55 | 97 | 1.7 | 7.8 | 0.00 | 0.00 | 0.00 | 67 | 1011.6 |
| 20260506182515 | 55 | 345 | 2.6 | 7.8 | 0.00 | 0.00 | 0.00 | 67 | 1011.5 |
| 20260506182014 | 55 | 30 | 1.7 | 6.1 | 0.00 | 0.00 | 0.00 | 67 | 1011.5 |
| 20260506181532 | 55 | 16 | 1.7 | 4.3 | 0.00 | 0.00 | 0.00 | 66 | 1011.5 |
| 20260506181016 | 55 | 16 | 1.7 | 4.3 | 0.00 | 0.00 | 0.00 | 66 | 1011.5 |
| 20260506180516 | 55 | 19 | 0.9 | 4.3 | 0.00 | 0.00 | 0.00 | 66 | 1011.4 |
| 20260506180038 | 56 | 15 | 1.7 | 5.2 | 0.00 | 0.00 | 0.00 | 65 | 1011.3 |
| 20260506175516 | 56 | 18 | 1.7 | 5.2 | 0.00 | 0.00 | 0.00 | 64 | 1011.3 |
| 20260506175017 | 56 | 24 | 1.7 | 5.2 | 0.00 | 0.00 | 0.00 | 63 | 1011.2 |
| 20260506174536 | 56 | 5 | 0.9 | 3.5 | 0.00 | 0.00 | 0.00 | 62 | 1011.2 |
| 20260506174016 | 56 | 5 | 0.9 | 3.5 | 0.00 | 0.00 | 0.00 | 61 | 1011.0 |
| 20260506173515 | 56 | 5 | 0.9 | 5.2 | 0.00 | 0.00 | 0.00 | 60 | 1011.0 |
| 20260506173031 | 56 | 360 | 1.7 | 7.0 | 0.00 | 0.00 | 0.00 | 59 | 1011.0 |
| 20260506172515 | 56 | 69 | 1.7 | 7.0 | 0.00 | 0.00 | 0.00 | 59 | 1011.0 |
| 20260506172017 | 56 | 21 | 1.7 | 7.0 | 0.00 | 0.00 | 0.00 | 59 | 1011.0 |
| 20260506171545 | 56 | 360 | 1.7 | 7.0 | 0.00 | 0.00 | 0.00 | 59 | 1010.9 |
| 20260506171017 | 56 | 0 | 2.6 | 7.0 | 0.00 | 0.00 | 0.00 | 59 | 1010.8 |
| 20260506170517 | 57 | 5 | 2.6 | 6.1 | 0.00 | 0.00 | 0.00 | 59 | 1010.8 |
| 20260506170045 | 57 | 5 | 1.7 | 5.2 | 0.00 | 0.00 | 0.00 | 59 | 1010.8 |
| 20260506165520 | 57 | 5 | 1.7 | 7.0 | 0.00 | 0.00 | 0.00 | 57 | 1010.9 |
| 20260506165019 | 57 | 5 | 1.7 | 7.0 | 0.00 | 0.00 | 0.00 | 57 | 1010.8 |
| 20260506164539 | 57 | 5 | 2.6 | 7.0 | 0.00 | 0.00 | 0.00 | 56 | 1010.8 |
| 20260506164019 | 57 | 78 | 0.9 | 5.2 | 0.00 | 0.00 | 0.00 | 57 | 1010.9 |
| 20260506163518 | 58 | 83 | 0.9 | 5.2 | 0.00 | 0.00 | 0.00 | 55 | 1010.8 |
| 20260506163038 | 58 | 84 | 0.9 | 4.3 | 0.00 | 0.00 | 0.00 | 57 | 1010.8 |
| 20260506162516 | 58 | 80 | 0.9 | 3.5 | 0.00 | 0.00 | 0.00 | 57 | 1010.9 |
| 20260506162018 | 58 | 82 | 1.7 | 3.5 | 0.00 | 0.00 | 0.00 | 58 | 1010.7 |
| 20260506161542 | 58 | 63 | 0.9 | 5.2 | 0.00 | 0.00 | 0.00 | 57 | 1010.8 |
| 20260506161017 | 59 | 34 | 0.9 | 7.0 | 0.00 | 0.00 | 0.00 | 56 | 1010.8 |
| 20260506160518 | 59 | 0 | 1.7 | 7.0 | 0.00 | 0.00 | 0.00 | 56 | 1010.7 |
| 20260506160039 | 59 | 100 | 1.7 | 7.0 | 0.00 | 0.00 | 0.00 | 54 | 1010.7 |
| 20260506155515 | 59 | 114 | 1.7 | 7.0 | 0.00 | 0.00 | 0.00 | 56 | 1010.7 |
| 20260506155016 | 59 | 152 | 0.9 | 7.0 | 0.00 | 0.00 | 0.00 | 56 | 1010.7 |
| 20260506154535 | 60 | 88 | 1.7 | 7.0 | 0.00 | 0.00 | 0.00 | 53 | 1010.7 |
| 20260506154016 | 60 | 343 | 0.9 | 7.8 | 0.00 | 0.00 | 0.00 | 52 | 1010.7 |
| 20260506153517 | 60 | 40 | 1.7 | 7.8 | 0.00 | 0.00 | 0.00 | 52 | 1010.6 |
| 20260506153031 | 60 | 78 | 2.6 | 7.0 | 0.00 | 0.00 | 0.00 | 52 | 1010.7 |
| 20260506152520 | 60 | 101 | 0.9 | 5.2 | 0.00 | 0.00 | 0.00 | 54 | 1010.6 |
| 20260506152017 | 61 | 105 | 1.7 | 7.0 | 0.00 | 0.00 | 0.00 | 51 | 1010.5 |
| 20260506151541 | 61 | 54 | 1.7 | 7.8 | 0.00 | 0.00 | 0.00 | 50 | 1010.6 |
| 20260506151017 | 61 | 67 | 2.6 | 7.8 | 0.00 | 0.00 | 0.00 | 49 | 1010.5 |
| 20260506150518 | 61 | 323 | 1.7 | 8.7 | 0.00 | 0.00 | 0.00 | 49 | 1010.5 |
| 20260506150039 | 61 | 5 | 2.6 | 8.7 | 0.00 | 0.00 | 0.00 | 47 | 1010.5 |
| 20260506145518 | 60 | 349 | 4.3 | 11.3 | 0.00 | 0.00 | 0.00 | 46 | 1010.4 |
| 20260506145016 | 61 | 348 | 3.5 | 11.3 | 0.00 | 0.00 | 0.00 | 47 | 1010.3 |
| 20260506144550 | 61 | 98 | 3.5 | 11.3 | 0.00 | 0.00 | 0.00 | 46 | 1010.5 |
| 20260506144018 | 61 | 134 | 2.6 | 8.7 | 0.00 | 0.00 | 0.00 | 47 | 1010.5 |
| 20260506143517 | 60 | 98 | 2.6 | 8.7 | 0.00 | 0.00 | 0.00 | 47 | 1010.5 |
| 20260506143032 | 60 | 46 | 3.5 | 9.6 | 0.00 | 0.00 | 0.00 | 46 | 1010.6 |
| 20260506142519 | 60 | 127 | 3.5 | 9.6 | 0.00 | 0.00 | 0.00 | 47 | 1010.5 |
| 20260506142016 | 60 | 90 | 2.6 | 7.8 | 0.00 | 0.00 | 0.00 | 48 | 1010.5 |
| 20260506141534 | 59 | 24 | 2.6 | 7.8 | 0.00 | 0.00 | 0.00 | 49 | 1010.5 |
| 20260506141014 | 60 | 112 | 2.6 | 7.0 | 0.00 | 0.00 | 0.00 | 50 | 1010.6 |
| 20260506140516 | 60 | 17 | 1.7 | 7.8 | 0.00 | 0.00 | 0.00 | 50 | 1010.7 |
| 20260506140035 | 59 | 352 | 3.5 | 13.9 | 0.00 | 0.00 | 0.00 | 49 | 1010.6 |
| 20260506135517 | 60 | 326 | 5.2 | 13.9 | 0.00 | 0.00 | 0.00 | 49 | 1010.5 |
| 20260506135016 | 60 | 82 | 4.3 | 10.4 | 0.00 | 0.00 | 0.00 | 47 | 1010.5 |
| 20260506134533 | 59 | 351 | 4.3 | 9.6 | 0.00 | 0.00 | 0.00 | 48 | 1010.4 |
| 20260506134014 | 60 | 352 | 3.5 | 9.6 | 0.00 | 0.00 | 0.00 | 48 | 1010.3 |
| 20260506133515 | 61 | 352 | 2.6 | 8.7 | 0.00 | 0.00 | 0.00 | 50 | 1010.4 |
| 20260506133031 | 61 | 107 | 2.6 | 8.7 | 0.00 | 0.00 | 0.00 | 48 | 1010.4 |
| 20260506132516 | 61 | 82 | 2.6 | 7.8 | 0.00 | 0.00 | 0.00 | 50 | 1010.4 |
| 20260506132017 | 61 | 360 | 3.5 | 12.2 | 0.00 | 0.00 | 0.00 | 50 | 1010.3 |
| 20260506131542 | 61 | 5 | 3.5 | 12.2 | 0.00 | 0.00 | 0.00 | 48 | 1010.3 |
| 20260506131016 | 61 | 101 | 3.5 | 10.4 | 0.00 | 0.00 | 0.00 | 47 | 1010.3 |
| 20260506130517 | 62 | 71 | 2.6 | 12.2 | 0.00 | 0.00 | 0.00 | 49 | 1010.2 |
| 20260506130034 | 61 | 96 | 5.2 | 12.2 | 0.00 | 0.00 | 0.00 | 48 | 1010.2 |
| 20260506125515 | 61 | 115 | 3.5 | 11.3 | 0.00 | 0.00 | 0.00 | 49 | 1010.2 |
| 20260506125016 | 60 | 346 | 3.5 | 9.6 | 0.00 | 0.00 | 0.00 | 52 | 1010.2 |
| 20260506124535 | 60 | 38 | 2.6 | 8.7 | 0.00 | 0.00 | 0.00 | 53 | 1010.2 |
| 20260506124016 | 60 | 9 | 3.5 | 8.7 | 0.00 | 0.00 | 0.00 | 53 | 1010.3 |
| 20260506123515 | 59 | 360 | 3.5 | 8.7 | 0.00 | 0.00 | 0.00 | 55 | 1010.2 |
| 20260506123032 | 60 | 5 | 2.6 | 8.7 | 0.00 | 0.00 | 0.00 | 54 | 1010.1 |
| 20260506122514 | 59 | 111 | 2.6 | 7.8 | 0.00 | 0.00 | 0.00 | 55 | 1010.2 |
| 20260506122019 | 59 | 350 | 3.5 | 11.3 | 0.00 | 0.00 | 0.00 | 54 | 1010.2 |
| 20260506121530 | 59 | 0 | 1.7 | 11.3 | 0.00 | 0.00 | 0.00 | 58 | 1010.2 |
| 20260506121014 | 59 | 347 | 3.5 | 11.3 | 0.00 | 0.00 | 0.00 | 58 | 1010.2 |
| 20260506120517 | 61 | 15 | 3.5 | 9.6 | 0.00 | 0.00 | 0.00 | 57 | 1010.1 |
| 20260506120032 | 62 | 28 | 2.6 | 8.7 | 0.00 | 0.00 | 0.00 | 55 | 1010.1 |
| 20260506115516 | 60 | 5 | 2.6 | 7.0 | 0.00 | 0.00 | 0.00 | 58 | 1010.1 |
| 20260506115013 | 60 | 25 | 2.6 | 7.8 | 0.00 | 0.00 | 0.00 | 59 | 1010.0 |
| 20260506114538 | 60 | 360 | 2.6 | 9.6 | 0.00 | 0.00 | 0.00 | 58 | 1010.1 |
| 20260506114015 | 60 | 5 | 1.7 | 9.6 | 0.00 | 0.00 | 0.00 | 56 | 1010.1 |
| 20260506113519 | 59 | 352 | 3.5 | 9.6 | 0.00 | 0.00 | 0.00 | 54 | 1010.2 |
| 20260506113032 | 59 | 5 | 3.5 | 8.7 | 0.00 | 0.00 | 0.00 | 57 | 1010.1 |
| 20260506112519 | 59 | 26 | 2.6 | 8.7 | 0.00 | 0.00 | 0.00 | 58 | 1010.1 |
| 20260506112014 | 59 | 360 | 2.6 | 9.6 | 0.00 | 0.00 | 0.00 | 61 | 1010.1 |
| 20260506111532 | 58 | 5 | 2.6 | 9.6 | 0.00 | 0.00 | 0.00 | 62 | 1010.1 |
| 20260506111015 | 59 | 345 | 3.5 | 9.6 | 0.00 | 0.00 | 0.00 | 62 | 1010.2 |
| 20260506110519 | 59 | 24 | 2.6 | 7.0 | 0.00 | 0.00 | 0.00 | 66 | 1010.1 |
| 20260506110034 | 59 | 31 | 2.6 | 8.7 | 0.00 | 0.00 | 0.00 | 66 | 1010.1 |
| 20260506105519 | 58 | 352 | 2.6 | 9.6 | 0.00 | 0.00 | 0.00 | 68 | 1010.0 |
| 20260506105014 | 58 | 14 | 3.5 | 9.6 | 0.00 | 0.00 | 0.00 | 68 | 1010.0 |
| 20260506104534 | 58 | 348 | 2.6 | 7.0 | 0.00 | 0.00 | 0.00 | 67 | 1010.0 |
| 20260506104016 | 58 | 5 | 2.6 | 7.0 | 0.00 | 0.00 | 0.00 | 67 | 1010.0 |
| 20260506103517 | 58 | 360 | 2.6 | 7.0 | 0.00 | 0.00 | 0.00 | 67 | 1010.0 |
| 20260506103034 | 58 | 352 | 1.7 | 4.3 | 0.00 | 0.00 | 0.00 | 68 | 1010.1 |
| 20260506102515 | 58 | 352 | 1.7 | 7.0 | 0.00 | 0.00 | 0.00 | 68 | 1010.0 |
| 20260506102016 | 58 | 22 | 1.7 | 7.8 | 0.00 | 0.00 | 0.00 | 67 | 1010.0 |
| 20260506101533 | 58 | 360 | 2.6 | 9.6 | 0.00 | 0.00 | 0.00 | 66 | 1010.0 |
| 20260506101015 | 58 | 352 | 2.6 | 10.4 | 0.00 | 0.00 | 0.00 | 65 | 1009.9 |
| 20260506100515 | 59 | 5 | 2.6 | 10.4 | 0.00 | 0.00 | 0.00 | 62 | 1009.9 |
| 20260506100032 | 61 | 350 | 2.6 | 7.8 | 0.00 | 0.00 | 0.00 | 63 | 1009.7 |
| 20260506095516 | 60 | 349 | 2.6 | 7.8 | 0.00 | 0.00 | 0.00 | 64 | 1009.8 |
| 20260506095016 | 59 | 24 | 2.6 | 7.8 | 0.00 | 0.00 | 0.00 | 63 | 1009.8 |
| 20260506094529 | 59 | 336 | 1.7 | 7.8 | 0.00 | 0.00 | 0.00 | 65 | 1009.8 |
| 20260506094015 | 58 | 147 | 2.6 | 9.6 | 0.00 | 0.00 | 0.00 | 67 | 1009.8 |
| 20260506093520 | 58 | 88 | 3.5 | 9.6 | 0.00 | 0.00 | 0.00 | 68 | 1009.8 |
| 20260506093028 | 58 | 5 | 3.5 | 8.7 | 0.00 | 0.00 | 0.00 | 69 | 1009.9 |
| 20260506092520 | 58 | 347 | 2.6 | 7.8 | 0.00 | 0.00 | 0.00 | 69 | 1009.8 |
| 20260506092016 | 58 | 340 | 2.6 | 8.7 | 0.00 | 0.00 | 0.00 | 71 | 1009.7 |
| 20260506091533 | 58 | 350 | 2.6 | 8.7 | 0.00 | 0.00 | 0.00 | 71 | 1009.7 |
| 20260506091014 | 58 | 340 | 3.5 | 8.7 | 0.00 | 0.00 | 0.00 | 70 | 1009.7 |
| 20260506090515 | 58 | 352 | 3.5 | 8.7 | 0.00 | 0.00 | 0.00 | 70 | 1009.7 |
| 20260506090033 | 58 | 352 | 3.5 | 7.8 | 0.00 | 0.00 | 0.00 | 70 | 1009.7 |
| 20260506085515 | 57 | 17 | 2.6 | 9.6 | 0.00 | 0.00 | 0.00 | 70 | 1009.8 |
| 20260506085016 | 57 | 351 | 2.6 | 9.6 | 0.00 | 0.00 | 0.00 | 71 | 1009.7 |
| 20260506084539 | 57 | 15 | 3.5 | 9.6 | 0.00 | 0.00 | 0.00 | 69 | 1009.7 |
| 20260506084015 | 57 | 335 | 3.5 | 9.6 | 0.00 | 0.00 | 0.00 | 70 | 1009.6 |
| 20260506083516 | 57 | 333 | 3.5 | 9.6 | 0.00 | 0.00 | 0.00 | 73 | 1009.5 |
| 20260506083030 | 56 | 47 | 2.6 | 7.8 | 0.00 | 0.00 | 0.00 | 74 | 1009.6 |
| 20260506082515 | 56 | 11 | 1.7 | 9.6 | 0.00 | 0.00 | 0.00 | 74 | 1009.5 |
| 20260506082018 | 56 | 9 | 1.7 | 9.6 | 0.00 | 0.00 | 0.00 | 77 | 1009.6 |
| 20260506081528 | 55 | 352 | 2.6 | 9.6 | 0.00 | 0.00 | 0.00 | 76 | 1009.6 |
| 20260506081015 | 56 | 13 | 3.5 | 9.6 | 0.00 | 0.00 | 0.00 | 75 | 1009.7 |
| 20260506080516 | 56 | 360 | 2.6 | 8.7 | 0.00 | 0.00 | 0.00 | 75 | 1009.5 |
| 20260506073513 | 56 | 18 | 3.5 | 9.6 | 0.00 | 0.00 | 0.00 | 76 | 1009.6 |
| 20260506073032 | 56 | 29 | 3.5 | 9.6 | 0.00 | 0.00 | 0.00 | 76 | 1009.5 |
| 20260506072514 | 56 | 13 | 2.6 | 7.8 | 0.00 | 0.00 | 0.00 | 77 | 1009.5 |
| 20260506072016 | 56 | 20 | 1.7 | 7.0 | 0.00 | 0.00 | 0.00 | 77 | 1009.5 |
| 20260506071532 | 56 | 350 | 1.7 | 6.1 | 0.00 | 0.00 | 0.00 | 77 | 1009.5 |
| 20260506071014 | 55 | 360 | 2.6 | 7.0 | 0.00 | 0.00 | 0.00 | 78 | 1009.5 |
| 20260506070515 | 55 | 351 | 1.7 | 7.0 | 0.00 | 0.00 | 0.00 | 79 | 1009.5 |
| 20260506062515 | 53 | 5 | 2.6 | 9.6 | 0.00 | 0.00 | 0.00 | 82 | 1009.2 |
| 20260506062016 | 53 | 22 | 3.5 | 9.6 | 0.00 | 0.00 | 0.00 | 81 | 1009.2 |
| 20260506061531 | 53 | 5 | 2.6 | 8.7 | 0.00 | 0.00 | 0.00 | 82 | 1009.3 |
| 20260506061016 | 53 | 5 | 2.6 | 8.7 | 0.00 | 0.00 | 0.00 | 83 | 1009.2 |
| 20260506060515 | 52 | 22 | 3.5 | 10.4 | 0.00 | 0.00 | 0.00 | 83 | 1009.1 |
| 20260506051014 | 50 | 360 | 1.7 | 5.2 | 0.00 | 0.00 | 0.00 | 87 | 1009.0 |
| 20260506050514 | 50 | 0 | 1.7 | 7.8 | 0.00 | 0.00 | 0.00 | 87 | 1008.9 |
| 20260506045017 | 50 | 5 | 0.9 | 7.0 | 0.00 | 0.00 | 0.00 | 86 | 1009.0 |
| 20260506044540 | 50 | 11 | 1.7 | 8.7 | 0.00 | 0.00 | 0.00 | 86 | 1009.0 |
| 20260506044016 | 50 | 5 | 1.7 | 8.7 | 0.00 | 0.00 | 0.00 | 86 | 1009.1 |
| 20260506043516 | 50 | 33 | 2.6 | 8.7 | 0.00 | 0.00 | 0.00 | 86 | 1009.0 |
| 20260506043031 | 50 | 352 | 1.7 | 7.8 | 0.00 | 0.00 | 0.00 | 86 | 1008.9 |
| 20260506042519 | 50 | 352 | 1.7 | 5.2 | 0.00 | 0.00 | 0.00 | 86 | 1009.0 |
| 20260506042019 | 49 | 352 | 1.7 | 5.2 | 0.00 | 0.00 | 0.00 | 86 | 1009.0 |
| 20260506041533 | 49 | 5 | 2.6 | 7.8 | 0.00 | 0.00 | 0.00 | 86 | 1009.0 |
| 20260506041016 | 49 | 360 | 2.6 | 7.8 | 0.00 | 0.00 | 0.00 | 86 | 1009.1 |
| 20260506040518 | 49 | 11 | 0.9 | 7.0 | 0.00 | 0.00 | 0.00 | 86 | 1009.1 |
| 20260506040033 | 49 | 11 | 2.6 | 7.0 | 0.00 | 0.00 | 0.00 | 86 | 1009.1 |
| 20260506035521 | 49 | 360 | 1.7 | 7.0 | 0.00 | 0.00 | 0.00 | 86 | 1009.2 |
| 20260506035016 | 49 | 351 | 1.7 | 7.0 | 0.00 | 0.00 | 0.00 | 86 | 1009.1 |
| 20260506034532 | 49 | 350 | 1.7 | 7.0 | 0.00 | 0.00 | 0.00 | 86 | 1009.0 |
| 20260506034018 | 49 | 5 | 0.9 | 4.3 | 0.00 | 0.00 | 0.00 | 86 | 1009.2 |
| 20260506033517 | 49 | 5 | 0.9 | 4.3 | 0.00 | 0.00 | 0.00 | 86 | 1009.2 |
| 20260506033036 | 49 | 5 | 0.9 | 4.3 | 0.00 | 0.00 | 0.00 | 87 | 1009.1 |
| 20260506032518 | 49 | 5 | 0.9 | 6.1 | 0.00 | 0.00 | 0.00 | 87 | 1009.3 |
| 20260506032017 | 49 | 12 | 0.9 | 6.1 | 0.00 | 0.00 | 0.00 | 87 | 1009.2 |
| 20260506031536 | 49 | 20 | 0.9 | 3.5 | 0.00 | 0.00 | 0.00 | 87 | 1009.2 |
| 20260506031016 | 49 | 0 | 0.9 | 5.2 | 0.00 | 0.00 | 0.00 | 87 | 1009.3 |
| 20260506030519 | 49 | 13 | 0.9 | 5.2 | 0.00 | 0.00 | 0.00 | 88 | 1009.4 |
| 20260506030054 | 49 | 5 | 0.9 | 5.2 | 0.00 | 0.00 | 0.00 | 87 | 1009.4 |
| 20260506025517 | 49 | 5 | 1.7 | 5.2 | 0.00 | 0.00 | 0.00 | 88 | 1009.4 |
| 20260506025019 | 49 | 5 | 0.9 | 5.2 | 0.00 | 0.00 | 0.00 | 88 | 1009.5 |
| 20260506024542 | 49 | 5 | 1.7 | 6.1 | 0.00 | 0.00 | 0.00 | 88 | 1009.4 |
| 20260506024015 | 48 | 13 | 1.7 | 6.1 | 0.00 | 0.00 | 0.00 | 88 | 1009.5 |
| 20260506023517 | 48 | 360 | 0.9 | 7.0 | 0.00 | 0.00 | 0.00 | 88 | 1009.5 |
| 20260506023035 | 48 | 360 | 1.7 | 7.0 | 0.00 | 0.00 | 0.00 | 88 | 1009.5 |
| 20260506022517 | 48 | 5 | 0.9 | 5.2 | 0.00 | 0.00 | 0.00 | 89 | 1009.6 |
| 20260506022017 | 48 | 5 | 0.9 | 5.2 | 0.00 | 0.00 | 0.00 | 89 | 1009.5 |
| 20260506021533 | 48 | 10 | 0.9 | 4.3 | 0.00 | 0.00 | 0.00 | 89 | 1009.6 |
| 20260506021017 | 48 | 0 | 1.7 | 5.2 | 0.00 | 0.00 | 0.00 | 89 | 1009.6 |
| 20260506020522 | 48 | 5 | 1.7 | 7.0 | 0.00 | 0.00 | 0.00 | 89 | 1009.6 |
| 20260506020033 | 47 | 5 | 0.9 | 7.0 | 0.00 | 0.00 | 0.00 | 89 | 1009.7 |
| 20260506015517 | 47 | 5 | 1.7 | 7.0 | 0.00 | 0.00 | 0.00 | 89 | 1009.7 |
| 20260506015027 | 47 | 9 | 0.9 | 5.2 | 0.00 | 0.00 | 0.00 | 89 | 1009.7 |
| 20260506014534 | 47 | 13 | 0.9 | 4.3 | 0.00 | 0.00 | 0.00 | 89 | 1009.6 |
| 20260506014015 | 47 | 13 | 0.9 | 4.3 | 0.00 | 0.00 | 0.00 | 89 | 1009.6 |
| 20260506013515 | 46 | 9 | 0.9 | 4.3 | 0.00 | 0.00 | 0.00 | 89 | 1009.6 |
| 20260506013032 | 46 | 0 | 0.0 | 4.3 | 0.00 | 0.00 | 0.00 | 89 | 1009.7 |
| 20260506012513 | 47 | 9 | 0.9 | 5.2 | 0.00 | 0.00 | 0.00 | 89 | 1009.7 |
| 20260506012016 | 47 | 10 | 0.9 | 6.1 | 0.00 | 0.00 | 0.00 | 89 | 1009.7 |
| 20260506011536 | 47 | 9 | 1.7 | 6.1 | 0.00 | 0.00 | 0.00 | 89 | 1009.7 |
| 20260506011020 | 47 | 10 | 0.9 | 4.3 | 0.00 | 0.00 | 0.00 | 89 | 1009.7 |
| 20260506010515 | 47 | 9 | 0.9 | 4.3 | 0.00 | 0.00 | 0.00 | 88 | 1009.7 |
| 20260506010030 | 47 | 9 | 0.9 | 4.3 | 0.00 | 0.00 | 0.00 | 88 | 1009.9 |
| 20260506005515 | 47 | 0 | 0.9 | 4.3 | 0.00 | 0.00 | 0.00 | 88 | 1009.8 |
| 20260506005015 | 47 | 11 | 1.7 | 4.3 | 0.00 | 0.00 | 0.00 | 88 | 1009.8 |
| 20260506004543 | 47 | 5 | 0.9 | 4.3 | 0.00 | 0.00 | 0.00 | 88 | 1009.9 |
| 20260506004015 | 47 | 5 | 0.9 | 6.1 | 0.00 | 0.00 | 0.00 | 87 | 1009.9 |
| 20260506003515 | 47 | 12 | 1.7 | 6.1 | 0.00 | 0.00 | 0.00 | 87 | 1010.0 |
| 20260506003038 | 47 | 350 | 0.9 | 6.1 | 0.00 | 0.00 | 0.00 | 87 | 1010.0 |
| 20260506002516 | 47 | 5 | 1.7 | 6.1 | 0.00 | 0.00 | 0.00 | 87 | 1010.1 |
| 20260506002017 | 47 | 5 | 0.9 | 5.2 | 0.00 | 0.00 | 0.00 | 87 | 1010.1 |
| 20260506001531 | 47 | 5 | 1.7 | 5.2 | 0.00 | 0.00 | 0.00 | 86 | 1010.1 |
| 20260506001014 | 47 | 346 | 1.7 | 6.1 | 0.00 | 0.00 | 0.00 | 86 | 1010.2 |
| 20260506000516 | 47 | 11 | 1.7 | 6.1 | 0.00 | 0.00 | 0.00 | 86 | 1010.2 |
| 20260506000030 | 47 | 0 | 1.7 | 7.0 | 0.00 | 0.00 | 0.00 | 86 | 1010.2 |
| 20260505235514 | 47 | 360 | 1.7 | 7.0 | 0.00 | 0.00 | 0.00 | 86 | 1010.2 |
| 20260505235016 | 47 | 15 | 0.9 | 7.0 | 0.00 | 0.00 | 0.00 | 86 | 1010.2 |
| 20260505234533 | 47 | 5 | 1.7 | 5.2 | 0.00 | 0.00 | 0.00 | 86 | 1010.3 |
| 20260505234016 | 47 | 10 | 0.9 | 3.5 | 0.00 | 0.00 | 0.00 | 86 | 1010.3 |
| 20260505233518 | 46 | 11 | 0.9 | 3.5 | 0.00 | 0.00 | 0.00 | 86 | 1010.4 |
| 20260505233032 | 46 | 9 | 0.9 | 5.2 | 0.00 | 0.00 | 0.00 | 86 | 1010.4 |
| 20260505232513 | 46 | 9 | 0.9 | 6.1 | 0.00 | 0.00 | 0.00 | 86 | 1010.5 |
| 20260505232013 | 46 | 12 | 1.7 | 6.1 | 0.00 | 0.00 | 0.00 | 85 | 1010.5 |
| 20260505231532 | 46 | 15 | 1.7 | 4.3 | 0.00 | 0.00 | 0.00 | 85 | 1010.6 |
| 20260505231014 | 46 | 17 | 0.9 | 4.3 | 0.00 | 0.00 | 0.00 | 85 | 1010.6 |
| 20260505230514 | 46 | 18 | 0.9 | 7.0 | 0.00 | 0.00 | 0.00 | 85 | 1010.6 |
| 20260505230041 | 47 | 17 | 0.9 | 7.0 | 0.00 | 0.00 | 0.00 | 85 | 1010.5 |
| 20260505225515 | 47 | 18 | 1.7 | 7.0 | 0.00 | 0.00 | 0.00 | 85 | 1010.6 |
| 20260505225020 | 47 | 21 | 0.9 | 7.0 | 0.00 | 0.00 | 0.00 | 84 | 1010.6 |
| 20260505224533 | 47 | 26 | 1.7 | 5.2 | 0.00 | 0.00 | 0.00 | 84 | 1010.6 |
| 20260505224015 | 47 | 5 | 1.7 | 5.2 | 0.00 | 0.00 | 0.00 | 84 | 1010.6 |
| 20260505223518 | 47 | 352 | 1.7 | 7.8 | 0.00 | 0.00 | 0.00 | 85 | 1010.6 |
| 20260505223035 | 47 | 360 | 1.7 | 7.8 | 0.00 | 0.00 | 0.00 | 85 | 1010.7 |
| 20260505222519 | 47 | 5 | 0.9 | 5.2 | 0.00 | 0.00 | 0.00 | 85 | 1010.7 |
| 20260505222015 | 47 | 5 | 1.7 | 5.2 | 0.00 | 0.00 | 0.00 | 85 | 1010.8 |
| 20260505221533 | 47 | 360 | 1.7 | 5.2 | 0.00 | 0.00 | 0.00 | 85 | 1010.8 |
| 20260505221016 | 47 | 5 | 0.9 | 4.3 | 0.00 | 0.00 | 0.00 | 85 | 1010.8 |
| 20260505220517 | 46 | 5 | 0.9 | 4.3 | 0.00 | 0.00 | 0.00 | 85 | 1010.9 |
| 20260505220040 | 46 | 360 | 0.9 | 4.3 | 0.00 | 0.00 | 0.00 | 85 | 1011.0 |
| 20260505215516 | 47 | 352 | 0.9 | 3.5 | 0.00 | 0.00 | 0.00 | 85 | 1010.9 |
| 20260505215017 | 47 | 352 | 0.9 | 2.6 | 0.00 | 0.00 | 0.00 | 85 | 1011.0 |
| 20260505214538 | 47 | 352 | 0.0 | 2.6 | 0.00 | 0.00 | 0.00 | 85 | 1011.0 |
| 20260505214016 | 47 | 0 | 0.0 | 2.6 | 0.00 | 0.00 | 0.00 | 84 | 1011.1 |
| 20260505213520 | 47 | 352 | 0.9 | 3.5 | 0.00 | 0.00 | 0.00 | 84 | 1011.1 |
| 20260505213036 | 47 | 352 | 0.0 | 3.5 | 0.00 | 0.00 | 0.00 | 84 | 1011.2 |
| 20260505212516 | 48 | 0 | 0.9 | 3.5 | 0.00 | 0.00 | 0.00 | 84 | 1011.2 |
| 20260505212016 | 48 | 5 | 0.9 | 3.5 | 0.00 | 0.00 | 0.00 | 83 | 1011.2 |
| 20260505211534 | 48 | 5 | 1.7 | 4.3 | 0.00 | 0.00 | 0.00 | 83 | 1011.3 |
| 20260505211017 | 48 | 360 | 0.9 | 4.3 | 0.00 | 0.00 | 0.00 | 83 | 1011.2 |
| 20260505210518 | 48 | 360 | 0.9 | 4.3 | 0.00 | 0.00 | 0.00 | 83 | 1011.2 |
| 20260505210033 | 48 | 352 | 1.7 | 4.3 | 0.00 | 0.00 | 0.00 | 83 | 1011.3 |
| 20260505205515 | 48 | 5 | 1.7 | 5.2 | 0.00 | 0.00 | 0.00 | 82 | 1011.4 |
| 20260505205017 | 48 | 5 | 1.7 | 5.2 | 0.00 | 0.00 | 0.00 | 82 | 1011.5 |
| 20260505204535 | 49 | 9 | 1.7 | 5.2 | 0.00 | 0.00 | 0.00 | 82 | 1011.4 |
| 20260505204017 | 49 | 5 | 1.7 | 3.5 | 0.00 | 0.00 | 0.00 | 82 | 1011.4 |